Location: Allos
(44.2333°N, 6.6333°E)
Time: 22:54:24
(UTC+00:00)

Cosmos 1821 Rocket - Pass Details

Date: 21 April 2021
Orbit: 946 x 1003 km, 82.9° (Epoch: 16 May)

Event Time Altitude Azimuth Distance (km) Brightness Sun altitude
Rises 03:00:22 0° 340° (NNW) 3,708 7.3 -16.7°
Reaches altitude 10° 03:03:20 10° 328° (NNW) 2,763 6.4 -16.3°
Maximum altitude 03:08:15 25° 276° (W) 1,917 5.1 -15.5°
Enters shadow 03:10:16 21° 250° (WSW) 2,082 5.1 -15.3°
